sat.trackr.live / text

‹ back to catalog

ONEWEB-0720

NORAD 55835 · 2023-029AR

PAYLOAD ACTIVE UNKNOWN

§ Identity

Operator
Country
UK
Launch date
2023-03-09
Launch site
AFETR
Launch vehicle
Mass (kg)
RCS (m²)

Purposes: comms

External: N2YO · Heavens-Above · Gunter

§ Orbital elements

Epoch: 2026-09-19T19:38:56.802336Z

Period
109.11 min
Inclination
87.9103°
Eccentricity
0.0001896
Mean motion
13.19725380 rev/d
Perigee alt
1,184.3 km
Apogee alt
1,187.2 km
Semi-major
7,563.9 km
B*
-2.6022e-4
RAAN
286.1205°
Arg perigee
84.8846°
Mean anomaly
275.2503°
Rev number
17,132

§ Raw data

ONEWEB-07201 55835U 23029AR  26262.81871299 -.00000091  00000+0 -26022-3 0  99912 55835  87.9103 286.1205 0001896  84.8846 275.2503 13.19725380171329

JSON: /api/v1/satellites/55835 · /tle

For live sub-satellite position, see the globe view (requires WebGL).

§ Visibility from observer

Set your observer location to see the next 7 days of passes ≥ 10°. The values pass through the URL so the page stays shareable.

No JS? Fill the form by hand. The geolocation button needs JavaScript.